Location: Samoth
(37.3328°N, 88.7876°W)
Time: 14:23:54
(UTC+00:00)

SL-4 R/B - Pass Details

Date: 29 October 2020
Orbit: 428 x 665 km, 51.6° (Epoch: 03 December)

Event Time Altitude Azimuth Distance (km) Brightness Sun altitude
Rises 23:52:52 0° 320° (NW) 2,446 5.8 -11.1°
Reaches altitude 10° 23:56:24 10° 357° (N) 1,619 4.4 -11.8°
Maximum altitude 23:57:32 11° 16° (NNE) 1,565 4.1 -12.0°
Drops below altitude 10° 23:58:41 10° 34° (NE) 1,653 4.1 -12.2°
Enters shadow 23:58:45 10° 35° (NE) 1,662 4.1 -12.3°
